Overview Statistics Trail Chart Weather Telemetry Raw packets
 

This is the latest recevied weather packets stored in our database for station/object DF1GD-10. If no packets are shown the sender has not sent any weather packets the latest 10 day(s).

<< 11 12 13 14 15 16 17 >>
Time Temp. Humidity Pressure Rain* Wind** Luminosity Snow
1788424100 17.22° C 46% 1022.7 hPa - - - -
1788423200 16.67° C 49% 1022.2 hPa - - - -
1788422299 16.11° C 51% 1022.2 hPa - - - -
1788421399 15.56° C 53% 1022.4 hPa - - - -
1788420499 15° C 55% 1022.5 hPa - - - -
1788419599 14.44° C 57% 1022.7 hPa - - - -
1788418699 13.89° C 59% 1022.4 hPa - - - -
1788417799 13.33° C 60% 1022.2 hPa - - - -
1788416899 12.78° C 63% 1022.3 hPa - - - -
1788415999 12.22° C 65% 1022 hPa - - - -
1788415098 11.11° C 66% 1022.1 hPa - - - -
1788414198 11.11° C 66% 1022.2 hPa - - - -
1788413298 11.11° C 67% 1022.2 hPa - - - -
1788412398 11.11° C 68% 1022.1 hPa - - - -
1788411498 11.11° C 68% 1022.1 hPa - - - -
1788410598 11.11° C 69% 1021.9 hPa - - - -
1788409697 11.11° C 69% 1021.6 hPa - - - -
1788408797 11.11° C 67% 1021.5 hPa - - - -
1788407897 11.67° C 66% 1021.6 hPa - - - -
1788406997 11.67° C 66% 1021.7 hPa - - - -
1788406096 11.67° C 65% 1021.8 hPa - - - -
1788405196 12.22° C 64% 1021.8 hPa - - - -
1788404296 12.22° C 64% 1021.7 hPa - - - -
1788403395 12.22° C 64% 1021.7 hPa - - - -
1788402495 12.78° C 62% 1021.8 hPa - - - -

* Rain since midnight (hover to see other rain measurements)
** Current wind speed in m/s (hover to see current wind gust speed)